Location: L�beck
(53.8752°N, 10.6787°E)
Time: 00:34:09
(UTC+02:00)

ISS - Visible Passes

Search period start: 25 July 2017 00:00
Search period end: 04 August 2017 00:00
Orbit: 400 x 408 km, 51.6° (Epoch: 25 July)

Date Brightness Start Highest point End Pass type
(mag) Time Alt. Az. Time Alt. Az. Time Alt. Az.
25 Jul -3.7 00:07:55 10° WSW 00:11:06 50° SSE 00:14:16 10° E visible
25 Jul -3.8 01:44:11 10° W 01:47:23 53° S 01:50:34 10° ESE visible
25 Jul -2.7 03:20:46 10° W 03:23:27 24° SSW 03:26:09 10° SSE visible
25 Jul -3.4 23:15:46 10° SW 23:18:51 40° SSE 23:21:57 10° E visible
26 Jul -3.9 00:51:53 10° W 00:55:06 58° S 00:56:43 26° ESE visible
26 Jul -1.9 02:28:20 10° W 02:29:16 16° WSW 02:29:16 16° WSW visible
26 Jul -3.0 22:23:42 10° SW 22:26:38 31° SSE 22:29:34 10° E visible
26 Jul -3.9 23:59:36 10° WSW 00:02:48 58° S 00:05:18 15° E visible
27 Jul -2.7 01:35:57 10° W 01:37:54 29° WSW 01:37:54 29° WSW visible
27 Jul -3.7 23:07:19 10° WSW 23:10:30 52° S 23:13:41 10° E visible
28 Jul -3.7 00:43:36 10° W 00:46:46 51° S 00:46:54 50° S visible
28 Jul -3.5 22:15:05 10° WSW 22:18:12 44° SSE 22:21:20 10° E visible
28 Jul -3.8 23:51:16 10° W 23:54:28 57° S 23:56:01 27° ESE visible
29 Jul -1.7 01:27:44 10° W 01:28:38 16° WSW 01:28:38 16° WSW visible
29 Jul -3.8 22:58:55 10° WSW 23:02:08 58° S 23:05:12 11° E visible
30 Jul -3.0 00:35:18 10° W 00:37:49 35° SW 00:37:49 35° SW visible
30 Jul -3.7 22:06:36 10° WSW 22:09:48 55° S 22:13:00 10° E visible
30 Jul -3.6 23:42:54 10° W 23:46:04 48° SSW 23:47:01 35° SE visible
31 Jul -3.7 22:50:31 10° W 22:53:44 55° S 22:56:15 15° ESE visible
01 Aug -2.2 00:27:03 10° W 00:28:51 22° WSW 00:28:51 22° WSW visible
01 Aug -3.7 21:58:08 10° W 22:01:21 58° S 22:04:34 10° E visible
01 Aug -3.1 23:34:33 10° W 23:37:34 35° SSW 23:38:06 32° S visible
02 Aug -3.4 22:42:06 10° W 22:45:14 45° SSW 22:47:21 18° SE visible
03 Aug -1.5 00:19:00 10° WSW 00:19:58 14° WSW 00:19:58 14° WSW visible
03 Aug -3.6 21:49:40 10° W 21:52:52 53° S 21:56:03 10° ESE visible
03 Aug -2.5 23:26:16 10° W 23:28:57 24° SSW 23:29:15 23° SSW visible
